Location: St. Louis
(38.6270°N, 90.1994°W)
Time: 04:47:42
(UTC-06:00)

A-11 Canister half - Pass Details

Date: 01 December 2021
Orbit: 1524 x 1684 km, 47.3° (Epoch: 22 January)

Event Time Altitude Azimuth Distance (km) Brightness Sun altitude
Exits shadow 04:17:59 51° 318° (NW) 2,027 9.2 -31.0°
Maximum altitude 04:19:41 55° 349° (N) 1,934 9.3 -30.7°
Drops below altitude 10° 04:29:22 10° 66° (ENE) 3,855 11.8 -28.8°
Sets 04:32:34 0° 71° (ENE) 4,819 12.6 -28.2°
